Home   Weather   St. Peter Port   Past weeks

Flag for Guernsey Past Weather in St. Peter Port, Guernsey — Yesterday and Last 2 Weeks

Now
61 °F

Passing clouds.


Feels Like: 61 °F
Forecast: 58 / 68 °F
Wind: 3 mph from West

Location: Guernsey Airport

Current Time: Aug 31, 2016 at 9:07:29 AM

Latest Report: Aug 31, 2016 at 8:20 AM


Visibility: N/A

Pressure: 30.18 "Hg

Humidity: 100%

Dew Point: 61 °F

Location of St. Peter PortLocation

Past Weather in St. Peter Port — Graph

°F

St. Peter Port Temperature Yesterday

Maximum temperature yesterday: 70 °F (at 1:20 PM)
Minimum temperature yesterday: 57 °F (at 2:50 AM)
Average temperature yesterday: 63 °F

High & Low Weather Summary for the Past Weeks

 TemperatureHumidityPressure
High82 °F (Aug 23, 5:50 PM)100% (Aug 17, 3:50 AM)30.30 "Hg (Aug 17, 3:50 AM)
Low57 °F (Aug 21, 6:50 AM)49% (Aug 26, 2:20 PM)29.68 "Hg (Aug 19, 9:50 AM)
Average65 °F84%30.03 "Hg
* Reported Aug 16 7:20 AM — Aug 31 7:50 AM, St. Peter Port, Weather by CustomWeather, © 2016

Note: Actual official high and low records may vary slightly from our data, if they occured in-between our weather recording intervals... More about our weather records

Advertising

St. Peter Port Weather History for the Previous 24 Hours

Scroll right to see more
 ConditionsComfort  
Time TempWeatherWind HumidityBarometerVisibility
7:50 AM
Wed, Aug 31
61 °FPassing clouds.3 mph100%30.18 "HgN/A
7:20 AM59 °FPassing clouds.3 mph100%30.18 "HgN/A
6:50 AM59 °FFog.5 mph100%30.15 "Hg2 mi
6:20 AM57 °FFog.5 mph100%30.15 "Hg2 mi
5:50 AM57 °FFog.3 mph100%30.15 "Hg2 mi
5:20 AM59 °FFog.5 mph100%30.15 "Hg1 mi
4:50 AM57 °FFog.3 mph100%30.15 "Hg1 mi
4:20 AM57 °FFog.5 mph100%30.15 "Hg1 mi
3:50 AM57 °FFog.5 mph100%30.15 "Hg0 mi
8:50 PM
Tue, Aug 30
59 °FSunny.3 mph100%30.21 "Hg10 mi
8:20 PM61 °FSunny.5 mph88%30.21 "Hg10 mi
7:50 PM61 °FSunny.3 mph94%30.21 "Hg10 mi
7:20 PM63 °FSunny.3 mph88%30.18 "Hg10 mi
6:50 PM64 °FSunny.6 mph78%30.18 "Hg10 mi
6:20 PM64 °FSunny.7 mph83%30.18 "Hg10 mi
5:50 PM66 °FPassing clouds.6 mph78%30.21 "HgN/A
5:20 PM66 °FPassing clouds.6 mph83%30.21 "HgN/A
4:50 PM68 °FPassing clouds.5 mph78%30.21 "HgN/A
4:20 PM68 °FPassing clouds.5 mph78%30.21 "HgN/A
3:50 PM68 °FPassing clouds.5 mph78%30.21 "HgN/A
3:20 PM68 °FPassing clouds.5 mph78%30.24 "HgN/A
2:50 PM66 °FPassing clouds.5 mph83%30.24 "HgN/A
2:20 PM66 °FPassing clouds.5 mph83%30.24 "HgN/A
1:50 PM66 °FPassing clouds.5 mph83%30.27 "HgN/A
1:20 PM70 °FPassing clouds.2 mph69%30.27 "HgN/A
12:50 PM68 °FPassing clouds.5 mph69%30.27 "HgN/A
12:20 PM68 °FPassing clouds.6 mph73%30.27 "HgN/A
11:50 AM66 °FPassing clouds.6 mph78%30.30 "HgN/A
11:20 AM66 °FPassing clouds.7 mph78%30.30 "HgN/A
10:50 AM64 °FPassing clouds.8 mph83%30.27 "HgN/A
10:20 AM64 °FPassing clouds.8 mph88%30.27 "HgN/A
9:50 AM63 °FPassing clouds.8 mph94%30.30 "Hg6 mi
9:20 AM63 °FScattered clouds.9 mph94%30.30 "Hg5 mi
Weather by CustomWeather, © 2016

See weather overviewHow to use our weather pages